Regional Weather Roundup
Issued by NWS

Home | Current Version | Previous Version | Graphics & Text | Print | Product List | Glossary On
Versions: 1 2 3 4 5 6 7 8 9 10 11 12 13 14 15 16 17 18 19 20 21 22 23 24 25 26 27 28 29 30 31 32 33 34 35 36 37 38 39 40 41 42 43 44 45 46 47 48 49 50
000
ASUS43 KDMX 281707
RWRIA

WEATHER ROUNDUP FOR IOWA
NATIONAL WEATHER SERVICE DES MOINES IA
1100 AM CST SUN DEC 28 2014

NOTE: "FAIR" INDICATES FEW OR NO CLOUDS BELOW 12,000 FEET WITH NO
SIGNIFICANT WEATHER AND/OR OBSTRUCTIONS TO VISIBILITY.

* - THESE STATIONS ARE NOT NWS STATIONS...THUS NOT UNDER NWS
QUALITY CONTROL.  THEY ALSO DO NOT REPORT WEATHER SUCH
AS PRECIPITATION OR FOG.

IAZ001>003-012>014-020>022-031>034-043>046-281800-
   NORTHWEST IOWA

CITY           SKY/WX    TMP DP  RH WIND       PRES   REMARKS
CARROLL *      SUNNY     21  16  79 NW5       30.15F WCI  15
CHEROKEE *     SUNNY     14  14 100 CALM      30.15F
DENISON *      SUNNY     21  19  93 CALM      30.13F
LE MARS *      SUNNY     12  10  92 CALM      30.17R
ORANGE CITY *  SUNNY     16  12  86 CALM      30.13S
SHELDON *      SUNNY     12  10  92 CALM      30.13R
SIOUX CITY     SUNNY     16  13  88 CALM      30.17R
SPENCER        SUNNY     14  11  87 CALM      30.15R
STORM LAKE *   SUNNY     16  12  86 CALM      30.14S
$$

IAZ055>058-069>071-079>083-090>094-281800-
   SOUTHWEST IOWA

CITY           SKY/WX    TMP DP  RH WIND       PRES   REMARKS
ATLANTIC *     SUNNY     25  21  86 SW3       30.15F
AUDUBON *      SUNNY     25  18  74 N3        30.14F
CLARINDA *     SUNNY     28  21  74 SW6       30.19S WCI  22
COUNCIL BLFS * SUNNY     25  19  80 CALM      30.13F
CRESTON *      SUNNY     27  21  80 SW6       30.15F WCI  20
HARLAN  *      SUNNY     23  21  93 CALM      30.18S
LAMONI         SUNNY     27  22  81 SW13      30.18R WCI  16
RED OAK *      SUNNY     27  21  80 VRB5      30.17S WCI  21
SHENANDOAH *   SUNNY     27  21  80 SW6       30.18S WCI  20
$$

IAZ047>049-059>061-072>074-084-281800-
   CENTRAL IOWA

CITY           SKY/WX    TMP DP  RH WIND       PRES   REMARKS
AMES           SUNNY     26  20  77 W7        30.17S WCI  18
ANKENY *       SUNNY     27  19  74 SW5       30.18F WCI  21
CHARITON *     SUNNY     28  23  80 S9        30.18S WCI  20
DES MOINES     SUNNY     26  20  77 SW3       30.18S
GRINNELL*      SUNNY     27  21  80 SW3       30.18S
KNOXVILLE *    SUNNY     28  21  74 SW8       30.17F WCI  20
MARSHALLTOWN   SUNNY     24  19  81 S5        30.16S WCI  18
PELLA *        SUNNY     30  23  74 S6        30.19F WCI  24
PERRY *          N/A     25  21  86 CALM      30.16F
$$

IAZ004>006-015-016-023>025-035-036-281800-
   NORTH CENTRAL IOWA

CITY           SKY/WX    TMP DP  RH WIND       PRES   REMARKS
ALGONA *       SUNNY     14  10  85 CALM      30.16S
CLARION *      SUNNY     16  14  93 W6        30.17R WCI   7
ESTHERVILLE    SUNNY     18  13  80 N7        30.14R WCI   9
FORT DODGE *   SUNNY     19  14  79 W3        30.16F
MASON CITY     SUNNY     17  11  77 W3        30.17R
FOREST CITY *  SUNNY     18  12  79 CALM      30.16S
IOWA FALLS *     N/A     25  19  80 NW5       30.17S WCI  19
$$

IAZ007>011-017>019-026>030-037>042-050>054-066-281800-
   NORTHEAST IOWA

CITY           SKY/WX    TMP DP  RH WIND       PRES   REMARKS
CEDAR RAPIDS   SUNNY     25  19  78 SW5       30.18F WCI  19
CHARLES CITY * SUNNY     21  16  79 NW8       30.17S WCI  12
CLINTON *      SUNNY     25  16  68 SW6       30.23F WCI  18
DECORAH *      SUNNY     23  18  80 VRB5      30.15S WCI  17
DUBUQUE        SUNNY     24  19  81 W7        30.17F WCI  16
MONTICELLO *   SUNNY     25  18  74 W5        30.19F WCI  19
OELWEIN *      SUNNY     23  19  86 VRB5      30.17S WCI  17
WATERLOO       SUNNY     26  18  71 CALM      30.18S
$$

IAZ064-065-067-068-078-281800-
   EAST CENTRAL IOWA

CITY           SKY/WX    TMP DP  RH WIND       PRES   REMARKS
DAVENPORT      SUNNY     26  16  65 W7        30.21F WCI  18
IOWA CITY      SUNNY     25  19  78 SW6       30.22F WCI  18
MT. PLEASANT * SUNNY     28  19  69 S7        30.21F WCI  21
MUSCATINE *    SUNNY     28  21  74 SW6       30.22F WCI  22
QUAD CITIES    SUNNY     28  16  60 W3        30.21F
$$

IAZ062-063-075>077-085>089-095>099-281800-
   SOUTHEAST IOWA

CITY           SKY/WX    TMP DP  RH WIND       PRES   REMARKS
BURLINGTON     SUNNY     29  20  69 SW9       30.21F WCI  20
FAIRFIELD *    SUNNY     28  18  64 SW7       30.20F WCI  21
FORT MADISON * SUNNY     30  21  69 SW7       30.22F WCI  23
KEOKUK *       SUNNY     30  21  69 SW7       30.22F WCI  23
OSKALOOSA *      N/A     28  21  74 S7        30.19F WCI  21
CENTERVILLE *  SUNNY     28  23  80 S8        30.20F WCI  20
OTTUMWA        SUNNY     28  21  75 S6        30.19F WCI  22
WASHINGTON *   SUNNY     27  23  86 SW8       30.20F WCI  18
$$

ABBREVIATIONS USED IN REMARKS
   TC - TEMPERATURES IN CELSIUS
  WCI - WIND CHILL INDEX
   HX - HEAT INDEX
  VSB - VISIBILITY
$$



USA.gov is the U.S. government's official web portal to all federal, state and local government web resources and services.